| time (UTC) | temp C | wind direction | speed KPH | gust KPH | rain 1hr cm | rain 24hr cm | rain mn cm | humidity % | barometer mb |
| 20260504050328 | 10 | 197 | 1.6 | 4.8 | 0.00 | 0.00 | 0.00 | 47 | 1014.6 |
| 20260504045328 | 10 | 282 | 0.0 | 3.2 | 0.00 | 0.00 | 0.00 | 45 | 1014.5 |
| 20260504044828 | 11 | 0 | 0.0 | 3.2 | 0.00 | 0.00 | 0.00 | 44 | 1014.5 |
| 20260504044328 | 11 | 0 | 1.6 | 3.2 | 0.00 | 0.00 | 0.00 | 44 | 1014.5 |
| 20260504043828 | 11 | 0 | 0.0 | 3.2 | 0.00 | 0.00 | 0.00 | 44 | 1014.5 |
| 20260504043550 | 11 | 281 | 1.6 | 3.2 | 0.00 | 0.00 | 0.00 | 43 | 1014.4 |
| 20260504042828 | 11 | 0 | 1.6 | 4.8 | 0.00 | 0.00 | 0.00 | 43 | 1014.4 |
| 20260504041831 | 11 | 0 | 1.6 | 4.8 | 0.00 | 0.00 | 0.00 | 42 | 1014.3 |
| 20260504041546 | 11 | 300 | 1.6 | 4.8 | 0.00 | 0.00 | 0.00 | 41 | 1014.3 |
| 20260504040824 | 11 | 0 | 1.6 | 8.0 | 0.00 | 0.00 | 0.00 | 40 | 1014.2 |
| 20260504040540 | 11 | 276 | 1.6 | 8.0 | 0.00 | 0.00 | 0.00 | 40 | 1014.2 |
| 20260504035820 | 11 | 313 | 1.6 | 4.8 | 0.00 | 0.00 | 0.00 | 41 | 1014.2 |
| 20260504035320 | 11 | 161 | 1.6 | 4.8 | 0.00 | 0.00 | 0.00 | 40 | 1014.2 |
| 20260504034819 | 11 | 0 | 1.6 | 6.4 | 0.00 | 0.00 | 0.00 | 40 | 1014.1 |
| 20260504034551 | 11 | 264 | 3.2 | 6.4 | 0.00 | 0.00 | 0.00 | 39 | 1014.1 |
| 20260504033821 | 11 | 308 | 1.6 | 6.4 | 0.00 | 0.00 | 0.00 | 41 | 1014.1 |
| 20260504033543 | 11 | 302 | 1.6 | 6.4 | 0.00 | 0.00 | 0.00 | 41 | 1014.1 |
| 20260504032820 | 11 | 0 | 1.6 | 3.2 | 0.00 | 0.00 | 0.00 | 43 | 1014.2 |
| 20260504032321 | 11 | 335 | 1.6 | 3.2 | 0.00 | 0.00 | 0.00 | 42 | 1014.1 |
| 20260504031817 | 11 | 329 | 1.6 | 3.2 | 0.00 | 0.00 | 0.00 | 43 | 1014.2 |
| 20260504031318 | 11 | 324 | 1.6 | 4.8 | 0.00 | 0.00 | 0.00 | 42 | 1014.2 |
| 20260504030817 | 11 | 325 | 1.6 | 4.8 | 0.00 | 0.00 | 0.00 | 43 | 1014.2 |
| 20260504030318 | 11 | 278 | 1.6 | 4.8 | 0.00 | 0.00 | 0.00 | 42 | 1014.2 |
| 20260504025818 | 11 | 251 | 1.6 | 4.8 | 0.00 | 0.00 | 0.00 | 41 | 1014.2 |
| 20260504025546 | 11 | 317 | 1.6 | 4.8 | 0.00 | 0.00 | 0.00 | 42 | 1014.1 |
| 20260504024818 | 11 | 278 | 1.6 | 4.8 | 0.00 | 0.00 | 0.00 | 41 | 1014.2 |
| 20260504024318 | 11 | 274 | 1.6 | 4.8 | 0.00 | 0.00 | 0.00 | 41 | 1014.2 |
| 20260504023318 | 11 | 262 | 1.6 | 8.0 | 0.00 | 0.00 | 0.00 | 41 | 1014.2 |
| 20260504022818 | 11 | 269 | 1.6 | 4.8 | 0.00 | 0.00 | 0.00 | 42 | 1014.2 |
| 20260504022542 | 11 | 0 | 1.6 | 4.8 | 0.00 | 0.00 | 0.00 | 42 | 1014.1 |
| 20260504021817 | 11 | 284 | 1.6 | 4.8 | 0.00 | 0.00 | 0.00 | 41 | 1014.1 |
| 20260504021316 | 11 | 301 | 3.2 | 4.8 | 0.00 | 0.00 | 0.00 | 42 | 1014.1 |
| 20260504020818 | 11 | 307 | 1.6 | 4.8 | 0.00 | 0.00 | 0.00 | 43 | 1014.1 |
| 20260504020316 | 11 | 252 | 3.2 | 4.8 | 0.00 | 0.00 | 0.00 | 43 | 1014.0 |
| 20260504015817 | 11 | 302 | 1.6 | 4.8 | 0.00 | 0.00 | 0.00 | 43 | 1013.9 |
| 20260504015317 | 10 | 277 | 1.6 | 4.8 | 0.00 | 0.00 | 0.00 | 43 | 1013.8 |
| 20260504014817 | 10 | 320 | 3.2 | 4.8 | 0.00 | 0.00 | 0.00 | 43 | 1013.8 |
| 20260504014541 | 10 | 264 | 3.2 | 4.8 | 0.00 | 0.00 | 0.00 | 43 | 1013.8 |
| 20260504013818 | 10 | 305 | 3.2 | 4.8 | 0.00 | 0.00 | 0.00 | 43 | 1013.6 |
| 20260504013318 | 10 | 270 | 1.6 | 4.8 | 0.00 | 0.00 | 0.00 | 43 | 1013.6 |
| 20260504012818 | 10 | 308 | 1.6 | 4.8 | 0.00 | 0.00 | 0.00 | 42 | 1013.6 |
| 20260504012317 | 10 | 236 | 1.6 | 6.4 | 0.00 | 0.00 | 0.00 | 43 | 1013.6 |
| 20260504011817 | 10 | 328 | 3.2 | 6.4 | 0.00 | 0.00 | 0.00 | 42 | 1013.6 |
| 20260504011317 | 11 | 281 | 1.6 | 6.4 | 0.00 | 0.00 | 0.00 | 42 | 1013.5 |
| 20260504010818 | 11 | 301 | 1.6 | 4.8 | 0.00 | 0.00 | 0.00 | 42 | 1013.5 |
| 20260504010317 | 11 | 303 | 1.6 | 4.8 | 0.00 | 0.00 | 0.00 | 42 | 1013.5 |
| 20260504005818 | 11 | 320 | 1.6 | 4.8 | 0.00 | 0.00 | 0.00 | 41 | 1013.5 |
| 20260504005316 | 11 | 299 | 1.6 | 4.8 | 0.00 | 0.00 | 0.00 | 40 | 1013.4 |
| 20260504004814 | 11 | 318 | 1.6 | 4.8 | 0.00 | 0.00 | 0.00 | 40 | 1013.5 |
| 20260504004314 | 11 | 299 | 1.6 | 3.2 | 0.00 | 0.00 | 0.00 | 40 | 1013.5 |
| 20260504003813 | 12 | 250 | 0.0 | 3.2 | 0.00 | 0.00 | 0.00 | 39 | 1013.5 |
| 20260504003314 | 12 | 0 | 1.6 | 4.8 | 0.00 | 0.00 | 0.00 | 38 | 1013.5 |
| 20260504002812 | 12 | 316 | 1.6 | 4.8 | 0.00 | 0.00 | 0.00 | 37 | 1013.4 |
| 20260504002312 | 12 | 237 | 1.6 | 4.8 | 0.00 | 0.00 | 0.00 | 36 | 1013.4 |
| 20260504001812 | 12 | 251 | 1.6 | 4.8 | 0.00 | 0.00 | 0.00 | 36 | 1013.4 |
| 20260504001312 | 13 | 0 | 1.6 | 4.8 | 0.00 | 0.00 | 0.00 | 35 | 1013.4 |
| 20260504000812 | 13 | 290 | 1.6 | 6.4 | 0.00 | 0.00 | 0.00 | 35 | 1013.4 |
| 20260503235812 | 13 | 325 | 3.2 | 9.7 | 0.00 | 0.00 | 0.00 | 34 | 1013.4 |
| 20260503235312 | 14 | 304 | 3.2 | 9.7 | 0.00 | 0.00 | 0.00 | 33 | 1013.3 |
| 20260503234813 | 14 | 302 | 3.2 | 6.4 | 0.00 | 0.00 | 0.00 | 32 | 1013.3 |
| 20260503234312 | 14 | 325 | 3.2 | 8.0 | 0.00 | 0.00 | 0.00 | 32 | 1013.3 |
| 20260503233812 | 15 | 344 | 3.2 | 11.3 | 0.00 | 0.00 | 0.00 | 31 | 1013.2 |
| 20260503233308 | 15 | 299 | 3.2 | 11.3 | 0.00 | 0.00 | 0.00 | 31 | 1013.2 |
| 20260503232809 | 15 | 303 | 3.2 | 9.7 | 0.00 | 0.00 | 0.00 | 30 | 1013.3 |
| 20260503232309 | 15 | 0 | 3.2 | 9.7 | 0.00 | 0.00 | 0.00 | 29 | 1013.1 |
| 20260503232031 | 16 | 315 | 3.2 | 9.7 | 0.00 | 0.00 | 0.00 | 28 | 1013.1 |
| 20260503231303 | 16 | 296 | 3.2 | 11.3 | 0.00 | 0.00 | 0.00 | 29 | 1013.0 |
| 20260503230802 | 16 | 268 | 4.8 | 11.3 | 0.00 | 0.00 | 0.00 | 28 | 1012.9 |
| 20260503230529 | 16 | 277 | 3.2 | 6.4 | 0.00 | 0.00 | 0.00 | 29 | 1013.0 |
| 20260503225803 | 16 | 263 | 3.2 | 6.4 | 0.00 | 0.00 | 0.00 | 29 | 1012.9 |
| 20260503225304 | 16 | 357 | 3.2 | 9.7 | 0.00 | 0.00 | 0.00 | 30 | 1013.0 |
| 20260503224803 | 16 | 278 | 4.8 | 9.7 | 0.00 | 0.00 | 0.00 | 29 | 1012.9 |
| 20260503224303 | 16 | 281 | 4.8 | 9.7 | 0.00 | 0.00 | 0.00 | 29 | 1012.9 |
| 20260503223802 | 16 | 308 | 4.8 | 9.7 | 0.00 | 0.00 | 0.00 | 28 | 1012.9 |
| 20260503223302 | 16 | 297 | 3.2 | 9.7 | 0.00 | 0.00 | 0.00 | 28 | 1013.0 |
| 20260503222759 | 16 | 321 | 3.2 | 9.7 | 0.00 | 0.00 | 0.00 | 28 | 1013.0 |
| 20260503222255 | 16 | 298 | 3.2 | 9.7 | 0.00 | 0.00 | 0.00 | 28 | 1013.0 |
| 20260503221755 | 16 | 170 | 4.8 | 12.9 | 0.00 | 0.00 | 0.00 | 26 | 1012.9 |
| 20260503221518 | 16 | 61 | 6.4 | 12.9 | 0.00 | 0.00 | 0.00 | 27 | 1013.0 |
| 20260503220756 | 16 | 277 | 6.4 | 12.9 | 0.00 | 0.00 | 0.00 | 27 | 1012.9 |
| 20260503215756 | 16 | 276 | 6.4 | 12.9 | 0.00 | 0.00 | 0.00 | 27 | 1013.0 |
| 20260503215256 | 16 | 276 | 6.4 | 14.5 | 0.00 | 0.00 | 0.00 | 27 | 1012.9 |
| 20260503215017 | 16 | 201 | 6.4 | 14.5 | 0.00 | 0.00 | 0.00 | 28 | 1012.9 |
| 20260503214256 | 16 | 267 | 4.8 | 11.3 | 0.00 | 0.00 | 0.00 | 28 | 1013.0 |
| 20260503213757 | 16 | 265 | 6.4 | 14.5 | 0.00 | 0.00 | 0.00 | 29 | 1013.0 |
| 20260503213256 | 16 | 322 | 6.4 | 14.5 | 0.00 | 0.00 | 0.00 | 28 | 1013.0 |
| 20260503212758 | 16 | 277 | 6.4 | 14.5 | 0.00 | 0.00 | 0.00 | 29 | 1013.0 |
| 20260503212257 | 16 | 292 | 6.4 | 14.5 | 0.00 | 0.00 | 0.00 | 28 | 1013.1 |
| 20260503211758 | 16 | 280 | 4.8 | 14.5 | 0.00 | 0.00 | 0.00 | 29 | 1013.1 |
| 20260503211257 | 15 | 303 | 6.4 | 14.5 | 0.00 | 0.00 | 0.00 | 29 | 1013.1 |
| 20260503211018 | 15 | 274 | 6.4 | 16.1 | 0.00 | 0.00 | 0.00 | 28 | 1013.1 |
| 20260503210257 | 16 | 295 | 6.4 | 16.1 | 0.00 | 0.00 | 0.00 | 30 | 1013.1 |
| 20260503205756 | 16 | 303 | 6.4 | 16.1 | 0.00 | 0.00 | 0.00 | 29 | 1013.2 |
| 20260503205258 | 16 | 314 | 4.8 | 11.3 | 0.00 | 0.00 | 0.00 | 29 | 1013.2 |
| 20260503204758 | 16 | 259 | 4.8 | 11.3 | 0.00 | 0.00 | 0.00 | 29 | 1013.1 |
| 20260503204257 | 15 | 291 | 4.8 | 11.3 | 0.00 | 0.00 | 0.00 | 29 | 1013.2 |
| 20260503203758 | 15 | 257 | 6.4 | 12.9 | 0.00 | 0.00 | 0.00 | 30 | 1013.3 |
| 20260503203258 | 15 | 301 | 6.4 | 12.9 | 0.00 | 0.00 | 0.00 | 31 | 1013.3 |
| 20260503202758 | 15 | 312 | 6.4 | 14.5 | 0.00 | 0.00 | 0.00 | 30 | 1013.4 |
| 20260503202257 | 15 | 268 | 6.4 | 14.5 | 0.00 | 0.00 | 0.00 | 30 | 1013.4 |
| 20260503202022 | 16 | 294 | 4.8 | 14.5 | 0.00 | 0.00 | 0.00 | 30 | 1013.4 |
| 20260503201514 | 16 | 265 | 3.2 | 9.7 | 0.00 | 0.00 | 0.00 | 31 | 1013.4 |
| 20260503200754 | 16 | 31 | 3.2 | 9.7 | 0.00 | 0.00 | 0.00 | 30 | 1013.4 |
| 20260503200252 | 15 | 289 | 4.8 | 9.7 | 0.00 | 0.00 | 0.00 | 31 | 1013.6 |
| 20260503195752 | 15 | 335 | 6.4 | 17.7 | 0.00 | 0.00 | 0.00 | 32 | 1013.8 |
| 20260503195252 | 15 | 100 | 8.0 | 20.9 | 0.00 | 0.00 | 0.00 | 31 | 1013.9 |
| 20260503195016 | 15 | 278 | 6.4 | 20.9 | 0.00 | 0.00 | 0.00 | 31 | 1014.0 |
| 20260503194252 | 15 | 153 | 6.4 | 14.5 | 0.00 | 0.00 | 0.00 | 34 | 1013.9 |
| 20260503193752 | 15 | 300 | 6.4 | 14.5 | 0.00 | 0.00 | 0.00 | 32 | 1014.0 |
| 20260503193252 | 15 | 245 | 4.8 | 11.3 | 0.00 | 0.00 | 0.00 | 33 | 1014.0 |
| 20260503192752 | 15 | 320 | 6.4 | 17.7 | 0.00 | 0.00 | 0.00 | 31 | 1014.0 |
| 20260503192252 | 14 | 318 | 8.0 | 19.3 | 0.00 | 0.00 | 0.00 | 32 | 1014.0 |
| 20260503191753 | 15 | 300 | 6.4 | 19.3 | 0.00 | 0.00 | 0.00 | 31 | 1014.1 |
| 20260503191252 | 14 | 238 | 4.8 | 11.3 | 0.00 | 0.00 | 0.00 | 33 | 1014.1 |
| 20260503190752 | 14 | 0 | 4.8 | 16.1 | 0.00 | 0.00 | 0.00 | 33 | 1014.3 |
| 20260503190520 | 14 | 267 | 6.4 | 17.7 | 0.00 | 0.00 | 0.00 | 33 | 1014.4 |
| 20260503190014 | 14 | 278 | 8.0 | 17.7 | 0.00 | 0.00 | 0.00 | 31 | 1014.4 |
| 20260503185249 | 13 | 291 | 8.0 | 16.1 | 0.00 | 0.00 | 0.00 | 33 | 1014.5 |
| 20260503184749 | 13 | 290 | 6.4 | 16.1 | 0.00 | 0.00 | 0.00 | 34 | 1014.6 |
| 20260503184249 | 13 | 20 | 4.8 | 11.3 | 0.00 | 0.00 | 0.00 | 39 | 1014.7 |
| 20260503183749 | 13 | 251 | 6.4 | 17.7 | 0.00 | 0.00 | 0.00 | 32 | 1014.8 |
| 20260503183508 | 13 | 301 | 9.7 | 22.5 | 0.00 | 0.00 | 0.00 | 34 | 1014.9 |
| 20260503182749 | 13 | 274 | 9.7 | 22.5 | 0.00 | 0.00 | 0.00 | 34 | 1015.0 |
| 20260503182250 | 13 | 284 | 6.4 | 19.3 | 0.00 | 0.00 | 0.00 | 36 | 1014.8 |
| 20260503181749 | 13 | 267 | 8.0 | 19.3 | 0.00 | 0.00 | 0.00 | 35 | 1015.0 |
| 20260503181249 | 13 | 282 | 6.4 | 17.7 | 0.00 | 0.00 | 0.00 | 40 | 1014.9 |
| 20260503180749 | 13 | 262 | 8.0 | 16.1 | 0.00 | 0.00 | 0.00 | 35 | 1015.0 |
| 20260503180249 | 12 | 263 | 6.4 | 16.1 | 0.00 | 0.00 | 0.00 | 38 | 1015.1 |
| 20260503175749 | 12 | 343 | 6.4 | 14.5 | 0.00 | 0.00 | 0.00 | 36 | 1015.1 |
| 20260503175250 | 12 | 184 | 6.4 | 17.7 | 0.00 | 0.00 | 0.00 | 37 | 1015.1 |
| 20260503174748 | 12 | 325 | 8.0 | 20.9 | 0.00 | 0.00 | 0.00 | 36 | 1015.1 |
| 20260503174247 | 12 | 306 | 6.4 | 20.9 | 0.00 | 0.00 | 0.00 | 37 | 1015.2 |
| 20260503173748 | 12 | 286 | 6.4 | 14.5 | 0.00 | 0.00 | 0.00 | 37 | 1015.1 |
| 20260503173247 | 12 | 255 | 6.4 | 14.5 | 0.00 | 0.00 | 0.00 | 40 | 1015.3 |
| 20260503172748 | 12 | 286 | 6.4 | 14.5 | 0.00 | 0.00 | 0.00 | 38 | 1015.2 |
| 20260503172512 | 12 | 277 | 6.4 | 14.5 | 0.00 | 0.00 | 0.00 | 39 | 1015.3 |
| 20260503171748 | 11 | 159 | 6.4 | 19.3 | 0.00 | 0.00 | 0.00 | 42 | 1015.3 |
| 20260503171248 | 11 | 322 | 8.0 | 19.3 | 0.00 | 0.00 | 0.00 | 37 | 1015.5 |
| 20260503171010 | 12 | 316 | 6.4 | 16.1 | 0.00 | 0.00 | 0.00 | 39 | 1015.5 |
| 20260503170508 | 11 | 185 | 6.4 | 14.5 | 0.00 | 0.00 | 0.00 | 41 | 1015.6 |
| 20260503150744 | 9 | 328 | 3.2 | 9.7 | 0.00 | 0.00 | 0.00 | 46 | 1016.7 |
| 20260503150244 | 9 | 268 | 4.8 | 12.9 | 0.00 | 0.00 | 0.00 | 46 | 1016.7 |
| 20260503140235 | 7 | 44 | 6.4 | 19.3 | 0.00 | 0.00 | 0.00 | 47 | 1016.8 |
| 20260503131235 | 6 | 280 | 6.4 | 16.1 | 0.00 | 0.00 | 0.00 | 50 | 1016.5 |
| 20260503130735 | 6 | 262 | 6.4 | 16.1 | 0.00 | 0.00 | 0.00 | 49 | 1016.5 |
| 20260503130235 | 6 | 310 | 6.4 | 12.9 | 0.00 | 0.00 | 0.00 | 49 | 1016.5 |
| 20260503110447 | 3 | 300 | 3.2 | 6.4 | 0.00 | 0.00 | 0.00 | 63 | 1015.6 |
| 20260503090207 | 3 | 275 | 1.6 | 6.4 | 0.00 | 0.00 | 0.00 | 62 | 1014.2 |
| 20260503081202 | 4 | 311 | 1.6 | 6.4 | 0.00 | 0.00 | 0.00 | 63 | 1013.8 |
| 20260503080703 | 4 | 346 | 1.6 | 3.2 | 0.00 | 0.00 | 0.00 | 63 | 1013.6 |
| 20260503080422 | 4 | 345 | 1.6 | 4.8 | 0.00 | 0.00 | 0.00 | 64 | 1013.6 |
| 20260503072702 | 4 | 284 | 3.2 | 6.4 | 0.00 | 0.00 | 0.00 | 64 | 1013.3 |
| 20260503072158 | 4 | 312 | 3.2 | 6.4 | 0.00 | 0.00 | 0.00 | 63 | 1013.2 |
| 20260503071659 | 3 | 297 | 3.2 | 6.4 | 0.00 | 0.00 | 0.00 | 67 | 1013.2 |
| 20260503071157 | 3 | 328 | 3.2 | 6.4 | 0.00 | 0.00 | 0.00 | 67 | 1013.1 |
| 20260503070657 | 3 | 325 | 1.6 | 4.8 | 0.00 | 0.00 | 0.00 | 74 | 1013.1 |
| 20260503070157 | 3 | 287 | 1.6 | 4.8 | 0.00 | 0.00 | 0.00 | 73 | 1013.2 |